Flag for Germany Weather past 2 weeks in Erfurt, Thuringia, Germany

Now
86 °F

Sunny.


Feels Like: 83 °F
Forecast: 63 / 87 °F
Wind: 10 mph from East

Location: Erfurt-Bindersleben

Current Time: Aug 3, 2015 at 5:21:07 PM

Latest Report: Aug 3, 2015 at 4:50 PM


Visibility: 10 mi

Pressure: 30.04 "Hg

Humidity: 27%

Dew point: 48 °F

Location of ErfurtLocation

Historic Weather in Erfurt — Graph

°F

Erfurt temperature yesterday

Maximum temperature yesterday: 81 °F (at 3:20 PM)
Minimum temperature yesterday: 52 °F (at 4:50 AM)
Average temperature yesterday: 69 °F

Past Weeks' High & Low Weather Summary

 TemperatureHumidityPressure
High88 °F (Aug 3, 4:20 PM)100% (Jul 31, 6:50 AM)30.15 "Hg (Jul 31, 6:50 AM)
Low46 °F (Jul 31, 3:50 AM)24% (Aug 2, 3:50 PM)29.62 "Hg (Jul 25, 4:50 AM)
Average65 °F63%29.92 "Hg
* Reported Jul 19 4:20 PM — Aug 3 4:20 PM, Erfurt, Weather by CustomWeather, © 2015

Note: Actual official high and low records may vary slightly from our data, if they occured in-between our weather recording intervals... More about our weather records

Advertising

Erfurt weather history for previous 24 hours

 ConditionsComfort  
Time TempWeatherWind HumidityBarometerVisibility
4:20 PM
Mon, Aug 3
88 °FSunny.3 mph25%30.04 "Hg10 mi
3:50 PM86 °FSunny.9 mph27%30.04 "Hg10 mi
3:20 PM86 °FSunny.6 mph27%30.04 "Hg10 mi
2:20 PM86 °FPassing clouds.6 mph27%30.07 "HgN/A
1:50 PM84 °FPassing clouds.5 mph27%30.07 "HgN/A
1:20 PM84 °FPassing clouds.5 mph29%30.07 "HgN/A
12:50 PM84 °FSunny.7 mph29%30.09 "Hg10 mi
12:20 PM82 °FPassing clouds.6 mph30%30.09 "HgN/A
11:50 AM81 °FPassing clouds.6 mph34%30.09 "HgN/A
11:20 AM79 °FSunny.6 mph39%30.09 "Hg10 mi
10:50 AM77 °FPassing clouds.6 mph42%30.09 "HgN/A
10:20 AM77 °FPassing clouds.5 mph44%30.09 "HgN/A
9:50 AM73 °FSunny.2 mph50%30.09 "Hg10 mi
9:20 AM72 °FSunny.2 mph50%30.09 "Hg10 mi
8:50 AM68 °FSunny.3 mph53%30.09 "Hg10 mi
8:20 AM66 °FSunny.2 mph56%30.09 "Hg10 mi
7:50 AM61 °FSunny.2 mph68%30.09 "Hg10 mi
7:20 AM59 °FSunny.2 mph72%30.09 "Hg10 mi
6:50 AM57 °FSunny.2 mph72%30.09 "Hg10 mi
6:20 AM57 °FClear.5 mph72%30.09 "Hg10 mi
5:50 AM57 °FClear.2 mph72%30.09 "Hg10 mi
5:20 AM59 °FClear.3 mph63%30.09 "Hg10 mi
4:50 AM63 °FClear.2 mph59%30.09 "Hg10 mi
4:20 AM63 °FClear.7 mph56%30.09 "Hg10 mi
3:50 AM63 °FClear.6 mph56%30.09 "Hg10 mi
3:20 AM66 °FClear.6 mph49%30.09 "Hg10 mi
2:50 AM66 °FClear.6 mph49%30.09 "Hg10 mi
2:20 AM66 °FClear.7 mph49%30.12 "Hg10 mi
1:50 AM66 °FClear.6 mph46%30.12 "Hg10 mi
1:20 AM66 °FClear.8 mph49%30.12 "Hg10 mi
12:50 AM66 °FClear.7 mph49%30.12 "Hg10 mi
12:20 AM66 °FClear.6 mph46%30.12 "Hg10 mi
11:20 PM
Sun, Aug 2
68 °FClear.7 mph43%30.12 "Hg10 mi
10:50 PM72 °FClear.9 mph38%30.12 "Hg10 mi
10:20 PM72 °FClear.8 mph38%30.12 "Hg10 mi
9:50 PM72 °FSunny.8 mph38%30.12 "Hg10 mi
9:20 PM73 °FSunny.8 mph33%30.09 "Hg10 mi
8:50 PM75 °FSunny.6 mph31%30.09 "Hg10 mi
8:20 PM75 °FSunny.7 mph31%30.09 "Hg10 mi
7:50 PM77 °FSunny.6 mph30%30.09 "Hg10 mi
7:20 PM79 °FPassing clouds.6 mph30%30.09 "HgN/A
6:50 PM81 °FSunny.9 mph26%30.09 "Hg10 mi
6:20 PM81 °FSunny.5 mph26%30.09 "Hg10 mi
5:50 PM81 °FSunny.2 mph24%30.09 "Hg10 mi
5:20 PM81 °FSunny.6 mph24%30.09 "Hg10 mi
Weather by CustomWeather, © 2015

See weather overviewHow to use our weather pages